Regional Weather Roundup
Issued by NWS Sioux Falls, SD

Home | Current Version | Previous Version | Text Only | Print | Product List | Glossary On
Versions: 1 2 3 4 5 6 7 8 9 10 11 12 13 14 15 16 17 18 19 20 21 22 23 24 25 26 27 28 29 30 31 32 33 34 35 36 37 38 39 40 41 42 43 44 45 46 47 48 49 50
000
ASUS43 KFSD 011002
RWRFSD

WEATHER ROUNDUP FOR SE SOUTH DAKOTA/SW MINNESOTA/NW IOWA
NATIONAL WEATHER SERVICE SIOUX FALLS SD
500 AM CDT WED OCT 01 2014

NOTE: "FAIR" INDICATES FEW OR NO CLOUDS BELOW 12,000 FEET WITH NO
SIGNIFICANT WEATHER AND OR OBSTRUCTIONS TO VISIBILITY.


SDZ038>040-050-052>070-011100-
SOUTHEAST SOUTH DAKOTA

CITY           SKY/WX    TMP DP  RH WIND       PRES   REMARKS
CHAMBERLAIN    CLOUDY    51  49  92 CALM      29.70R
HURON          PTCLDY    60  59  96 S6        29.68R
MADISON        CLOUDY    59  59 100 S9        29.70S FOG
MITCHELL       MOCLDY    63  61  93 S6        29.68S
SIOUX FALLS    DRIZZLE   63  61  93 S8        29.71F FOG
WINNER         CLOUDY    55  47  74 W6        29.71R
YANKTON        CLOUDY    64  61  88 S8        29.70S
$$

MNZ071-072-080-081-089-090-097-098-011100-
SOUTHWEST MINNESOTA

CITY           SKY/WX    TMP DP  RH WIND       PRES   REMARKS
FAIRMONT       CLOUDY    55  48  76 SE15G22   29.79S
JACKSON        CLOUDY    57  54  88 SE9       29.78S
LUVERNE        CLOUDY    63  59  88 SE10      29.73F
MARSHALL       CLOUDY    63  57  82 S14       29.70F
MONTEVIDEO     CLOUDY    61  61 100 S8        29.72F
PIPESTONE      CLOUDY    61  59  94 S12       29.72S FOG
REDWOOD FALLS  CLOUDY    57  54  89 SE10      29.74F
TRACY          CLOUDY    62  59  91 S12       29.73S
WINDOM         CLOUDY    57  55  94 SE12      29.76S
WORTHINGTON    CLOUDY    57  55  94 S12       29.75F
$$

IAZ001>003-012>014-020>022-031-032-NEZ013-014-SDZ071-011100-
NORTHWEST IOWA

CITY           SKY/WX    TMP DP  RH WIND       PRES   REMARKS
CHEROKEE       CLOUDY    60  60 100 CALM      29.72F
DENISON        CLOUDY    61  61 100 E18       29.68F
ESTHERVILLE    CLOUDY    56  54  93 SE12      29.78R
LE MARS          N/A     61  59  94 SE5       29.72S
ORANGE CITY    CLOUDY    61  57  88 CALM      29.73S FOG
SHELDON        CLOUDY    59  59 100 SE7       29.73S
SIOUX CITY     CLOUDY    61  59  93 S3        29.71S FOG
SPENCER        CLOUDY    58  56  93 E5        29.75F
STORM LAKE     CLOUDY    59  59 100 SE14      29.73F FOG
$$

ABBREVIATIONS USED IN REMARKS
   TC - TEMPERATURE IN CELSIUS
  WCI - WIND CHILL INDEX
   HX - HEAT INDEX
  VSB - VISIBILITY



USA.gov is the U.S. government's official web portal to all federal, state and local government web resources and services.